Simultaneous Nadir Overpasses (SNOs) Predictions

Prediction of SNOs between METOP-B and TERRA Satellite Orbit:

Table of predicted SNOs for the next 14.0 days since TLE Epoch: 3/28/2015
Index Date (METOP-B) Time (METOP-B) Lat,Lon (METOP-B) SZA (METOP-B ) Date (TERRA) Time (TERRA) Lat,Lon (TERRA) SZA (TERRA ) Distance(km) Time Diff (sec)
1 03/28/2015 13:10:22 81.30, 29.68 80.96 03/28/2015 13:10:32 81.30, 29.77 80.98 1.57 10
2 03/28/2015 14:01:02 -81.30,-162.61 99.01 03/28/2015 13:59:59 -81.29,-162.72 99.06 2.04 63
3 03/31/2015 08:44:46 81.29, 95.96 79.88 03/31/2015 08:44:48 81.30, 96.12 79.90 2.82 2
4 03/31/2015 09:35:25 -81.31, -95.90 100.04 03/31/2015 09:34:14 -81.31, -95.96 100.08 1.19 71
5 04/03/2015 03:28:29 -81.29, -4.95 101.17 04/03/2015 03:29:37 -81.30, -5.09 101.15 2.31 68
6 04/03/2015 04:19:09 81.30, 162.55 78.85 04/03/2015 04:19:03 81.30, 162.65 78.86 1.83 6
7 04/05/2015 23:02:52 -81.29, 61.22 102.24 04/05/2015 23:03:51 -81.29, 61.27 102.20 0.95 59
8 04/05/2015 23:53:31 81.30,-130.93 77.82 04/05/2015 23:53:17 81.30,-131.02 77.80 1.50 14
9 04/08/2015 18:37:15 -81.29, 127.70 103.26 04/08/2015 18:38:05 -81.30, 127.81 103.22 1.94 50




NCC Satellite Simultaneous Nadir Overpasses (SNOs) Prediction Service
